Time,TemperatureF,DewpointF,PressureIn,WindDirection,WindDirectionDegrees,WindSpeedMPH,WindSpeedGustMPH,Humidity,HourlyPrecipIn,Conditions,Clouds,dailyrainin,SoftwareType,DateUTC
2013-04-19 00:00:00,51.0,48.2,30.11,South,172,1.0,4.0,90,0.00,,OVC007,0.00,VWS V14.01,2013-04-19 04:00:00,
2013-04-19 00:01:00,51.0,48.2,30.11,South,172,1.0,4.0,90,0.00,,OVC007,0.00,VWS V14.01,2013-04-19 04:01:00,
2013-04-19 00:06:00,51.2,48.7,30.11,SSE,157,0.0,4.0,91,0.00,,OVC007,0.00,VWS V14.01,2013-04-19 04:06:00,
2013-04-19 00:13:00,51.3,48.8,30.10,ESE,105,1.0,4.0,91,0.00,,OVC007,0.00,VWS V14.01,2013-04-19 04:13:00,
2013-04-19 00:18:00,51.4,48.9,30.10,SE,130,0.0,4.0,91,0.00,,OVC007,0.00,VWS V14.01,2013-04-19 04:18:00,
2013-04-19 00:23:00,51.4,48.9,30.10,SE,130,0.0,4.0,91,0.00,,OVC007,0.00,VWS V14.01,2013-04-19 04:23:00,
2013-04-19 00:28:00,51.4,49.2,30.10,SE,130,1.0,4.0,92,0.00,,OVC007,0.00,VWS V14.01,2013-04-19 04:28:00,
2013-04-19 00:33:00,51.4,49.2,30.10,SE,130,2.0,3.0,92,0.00,,OVC007,0.00,VWS V14.01,2013-04-19 04:33:00,
2013-04-19 00:38:00,51.5,49.3,30.10,SE,130,2.0,3.0,92,0.00,,OVC007,0.00,VWS V14.01,2013-04-19 04:38:00,
2013-04-19 00:43:00,51.5,49.3,30.10,SSE,152,2.0,4.0,92,0.00,,OVC007,0.00,VWS V14.01,2013-04-19 04:43:00,
2013-04-19 00:48:00,51.5,49.3,30.10,SSE,152,0.0,4.0,92,0.00,,OVC007,0.00,VWS V14.01,2013-04-19 04:48:00,
2013-04-19 00:53:00,51.5,49.3,30.09,SSE,152,0.0,4.0,92,0.00,,OVC007,0.00,VWS V14.01,2013-04-19 04:53:00,
2013-04-19 00:58:00,51.6,49.4,30.09,SSE,152,1.0,4.0,92,0.00,,OVC007,0.00,VWS V14.01,2013-04-19 04:58:00,
2013-04-19 01:03:00,51.7,49.5,30.09,SSE,152,0.0,2.0,92,0.00,,OVC005,0.00,VWS V14.01,2013-04-19 05:03:00,
2013-04-19 01:08:00,51.7,49.5,30.09,SSE,152,0.0,2.0,92,0.00,,OVC005,0.00,VWS V14.01,2013-04-19 05:08:00,
2013-04-19 01:13:00,51.9,49.9,30.09,SSE,152,0.0,2.0,93,0.00,,OVC005,0.00,VWS V14.01,2013-04-19 05:13:00,
2013-04-19 01:18:00,52.0,50.0,30.08,SSE,152,0.0,2.0,93,0.00,,OVC005,0.00,VWS V14.01,2013-04-19 05:18:00,
2013-04-19 01:23:00,52.1,50.1,30.08,SSE,152,2.0,2.0,93,0.00,,OVC005,0.00,VWS V14.01,2013-04-19 05:23:00,
2013-04-19 01:28:00,52.2,50.2,30.08,SSE,152,0.0,2.0,93,0.00,,OVC005,0.00,VWS V14.01,2013-04-19 05:28:00,
2013-04-19 01:33:00,52.3,50.3,30.07,SSE,152,0.0,1.0,93,0.00,,,0.00,VWS V14.01,2013-04-19 05:33:00,
2013-04-19 01:38:00,52.3,50.6,30.07,SSE,152,0.0,1.0,94,0.00,,,0.00,VWS V14.01,2013-04-19 05:38:00,
2013-04-19 01:43:00,52.3,50.6,30.07,SSE,152,0.0,1.0,94,0.00,,,0.00,VWS V14.01,2013-04-19 05:43:00,
2013-04-19 01:48:00,52.3,50.6,30.06,SSE,152,0.0,1.0,94,0.00,,,0.00,VWS V14.01,2013-04-19 05:48:00,
2013-04-19 01:53:00,52.4,50.7,30.06,SSE,152,2.0,2.0,94,0.00,,,0.00,VWS V14.01,2013-04-19 05:53:00,
2013-04-19 01:58:00,52.6,50.9,30.05,SSE,152,0.0,3.0,94,0.00,,,0.00,VWS V14.01,2013-04-19 05:58:00,
2013-04-19 02:04:00,52.7,51.0,30.05,SSE,152,0.0,0.0,94,0.00,,,0.00,VWS V14.01,2013-04-19 06:04:00,
2013-04-19 02:09:00,52.7,51.0,30.05,SSE,152,0.0,0.0,94,0.00,,,0.00,VWS V14.01,2013-04-19 06:09:00,
2013-04-19 02:14:00,52.7,51.0,30.05,SSE,152,0.0,0.0,94,0.00,,,0.00,VWS V14.01,2013-04-19 06:14:00,
2013-04-19 02:19:00,52.7,51.0,30.05,SSE,152,0.0,0.0,94,0.00,,,0.00,VWS V14.01,2013-04-19 06:19:00,
2013-04-19 02:24:00,52.7,51.0,30.05,SSE,152,0.0,0.0,94,0.00,,,0.00,VWS V14.01,2013-04-19 06:24:00,
2013-04-19 02:29:00,52.8,51.1,30.04,SSE,152,0.0,2.0,94,0.00,,,0.00,VWS V14.01,2013-04-19 06:29:00,
2013-04-19 02:34:00,52.9,51.2,30.04,SSE,152,2.0,3.0,94,0.00,,,0.00,VWS V14.01,2013-04-19 06:34:00,
2013-04-19 02:39:00,53.0,51.6,30.04,SSE,148,1.0,3.0,95,0.00,,,0.00,VWS V14.01,2013-04-19 06:39:00,
2013-04-19 02:44:00,53.1,51.7,30.04,SSE,148,2.0,4.0,95,0.00,,,0.00,VWS V14.01,2013-04-19 06:44:00,
2013-04-19 02:49:00,53.1,51.7,30.03,South,171,0.0,4.0,95,0.00,,,0.00,VWS V14.01,2013-04-19 06:49:00,
2013-04-19 02:54:00,53.2,51.8,30.03,South,171,0.0,4.0,95,0.00,,,0.00,VWS V14.01,2013-04-19 06:54:00,
2013-04-19 02:59:00,53.2,51.8,30.02,SSW,200,0.0,4.0,95,0.00,,,0.00,VWS V14.01,2013-04-19 06:59:00,
2013-04-19 03:04:00,53.3,51.9,30.02,South,191,0.0,2.0,95,0.00,,,0.00,VWS V14.01,2013-04-19 07:04:00,
2013-04-19 03:09:00,53.4,52.0,30.02,ESE,123,2.0,4.0,95,0.00,,,0.00,VWS V14.01,2013-04-19 07:09:00,
2013-04-19 03:14:00,53.6,52.5,30.02,SSE,157,2.0,5.0,96,0.00,,,0.00,VWS V14.01,2013-04-19 07:14:00,
2013-04-19 03:19:00,53.6,52.5,30.02,SSE,159,1.0,5.0,96,0.00,,,0.00,VWS V14.01,2013-04-19 07:19:00,
2013-04-19 03:24:00,53.8,52.7,30.02,SSE,165,2.0,7.0,96,0.00,,,0.00,VWS V14.01,2013-04-19 07:24:00,
2013-04-19 03:29:00,54.0,52.9,30.02,SSE,162,2.0,7.0,96,0.00,,,0.00,VWS V14.01,2013-04-19 07:29:00,
2013-04-19 03:34:00,54.2,53.1,30.01,South,180,3.0,3.0,96,0.00,,,0.00,VWS V14.01,2013-04-19 07:34:00,
2013-04-19 03:39:00,54.3,53.2,30.01,SSE,150,4.0,6.0,96,0.00,,,0.00,VWS V14.01,2013-04-19 07:39:00,
2013-04-19 03:44:00,54.4,53.3,30.01,SSE,150,2.0,6.0,96,0.00,,,0.00,VWS V14.01,2013-04-19 07:44:00,
2013-04-19 03:49:00,54.4,53.3,30.01,SSE,150,2.0,6.0,96,0.00,,,0.00,VWS V14.01,2013-04-19 07:49:00,
2013-04-19 03:54:00,54.4,53.3,30.01,SSE,163,4.0,6.0,96,0.00,,,0.00,VWS V14.01,2013-04-19 07:54:00,
2013-04-19 03:59:00,54.4,53.3,30.01,SSE,163,1.0,6.0,96,0.00,,,0.00,VWS V14.01,2013-04-19 07:59:00,
2013-04-19 04:04:00,54.4,53.3,30.01,SSE,163,0.0,2.0,96,0.00,,,0.00,VWS V14.01,2013-04-19 08:04:00,
2013-04-19 04:09:00,54.4,53.3,30.00,SSE,163,2.0,4.0,96,0.00,,,0.00,VWS V14.01,2013-04-19 08:09:00,
2013-04-19 04:14:00,54.3,53.2,30.00,SSE,163,2.0,4.0,96,0.00,,,0.00,VWS V14.01,2013-04-19 08:14:00,
2013-04-19 04:19:00,54.2,53.1,30.00,SSE,163,0.0,4.0,96,0.00,,,0.00,VWS V14.01,2013-04-19 08:19:00,
2013-04-19 04:24:00,54.1,53.0,30.01,SSE,163,0.0,4.0,96,0.00,,,0.00,VWS V14.01,2013-04-19 08:24:00,
2013-04-19 04:29:00,54.1,53.0,30.01,SSE,163,0.0,4.0,96,0.00,,,0.00,VWS V14.01,2013-04-19 08:29:00,
2013-04-19 04:34:00,54.1,53.0,30.01,SSE,163,1.0,1.0,96,0.00,,,0.00,VWS V14.01,2013-04-19 08:34:00,
2013-04-19 04:39:00,54.1,53.0,30.00,SSE,163,1.0,2.0,96,0.00,,,0.00,VWS V14.01,2013-04-19 08:39:00,
2013-04-19 04:44:00,54.2,53.1,30.00,SSE,163,0.0,2.0,96,0.00,,,0.00,VWS V14.01,2013-04-19 08:44:00,
2013-04-19 04:49:00,54.3,53.2,30.00,SSE,163,0.0,2.0,96,0.00,,,0.00,VWS V14.01,2013-04-19 08:49:00,
2013-04-19 04:54:00,54.3,53.5,30.00,SSE,163,0.0,2.0,97,0.00,,,0.00,VWS V14.01,2013-04-19 08:54:00,
2013-04-19 04:59:00,54.4,53.6,29.99,SSE,163,0.0,2.0,97,0.00,,,0.00,VWS V14.01,2013-04-19 08:59:00,
2013-04-19 05:04:00,54.4,53.6,29.99,SSE,163,0.0,0.0,97,0.00,,,0.00,VWS V14.01,2013-04-19 09:04:00,
2013-04-19 05:09:00,54.4,53.6,29.99,SSE,163,0.0,1.0,97,0.00,,,0.00,VWS V14.01,2013-04-19 09:09:00,
2013-04-19 05:14:00,54.4,53.6,29.98,SSE,163,1.0,1.0,97,0.00,,,0.00,VWS V14.01,2013-04-19 09:14:00,
2013-04-19 05:19:00,54.4,53.6,29.98,SSE,163,0.0,2.0,97,0.00,,,0.00,VWS V14.01,2013-04-19 09:19:00,
2013-04-19 05:24:00,54.4,53.6,29.98,SSE,163,0.0,2.0,97,0.00,,,0.00,VWS V14.01,2013-04-19 09:24:00,
2013-04-19 05:29:00,54.4,53.6,29.98,SSE,163,0.0,2.0,97,0.00,,,0.00,VWS V14.01,2013-04-19 09:29:00,
2013-04-19 05:34:00,54.3,53.5,29.99,SSE,163,1.0,1.0,97,0.00,,,0.00,VWS V14.01,2013-04-19 09:34:00,
2013-04-19 05:39:00,54.0,52.9,29.99,SSE,163,0.0,2.0,96,0.00,,,0.00,VWS V14.01,2013-04-19 09:39:00,
2013-04-19 05:44:00,53.8,52.7,29.99,SSE,163,2.0,3.0,96,0.00,,,0.00,VWS V14.01,2013-04-19 09:44:00,
2013-04-19 05:49:00,53.6,52.5,29.99,SSE,163,3.0,3.0,96,0.00,,,0.00,VWS V14.01,2013-04-19 09:49:00,
2013-04-19 05:54:00,53.5,52.4,29.99,SSE,163,2.0,3.0,96,0.00,,,0.00,VWS V14.01,2013-04-19 09:54:00,
2013-04-19 05:59:00,53.4,52.3,29.99,SSE,163,4.0,5.0,96,0.00,,,0.00,VWS V14.01,2013-04-19 09:59:00,
2013-04-19 06:04:00,53.4,52.3,29.99,SSE,163,1.0,3.0,96,0.00,,,0.00,VWS V14.01,2013-04-19 10:04:00,
2013-04-19 06:09:00,53.4,52.3,29.99,SSE,163,3.0,4.0,96,0.00,,,0.00,VWS V14.01,2013-04-19 10:09:00,
2013-04-19 06:14:00,53.5,52.7,29.99,SSE,163,2.0,5.0,97,0.00,,,0.00,VWS V14.01,2013-04-19 10:14:00,
2013-04-19 06:19:00,53.6,52.8,29.99,SSE,163,2.0,5.0,97,0.00,,,0.00,VWS V14.01,2013-04-19 10:19:00,
2013-04-19 06:24:00,53.6,52.8,29.99,SSE,163,0.0,5.0,97,0.00,,,0.00,VWS V14.01,2013-04-19 10:24:00,
2013-04-19 06:29:00,53.5,52.7,29.99,SSE,163,0.0,5.0,97,0.00,,,0.00,VWS V14.01,2013-04-19 10:29:00,
2013-04-19 06:34:00,53.5,52.7,29.99,SSE,161,3.0,5.0,97,0.00,,,0.00,VWS V14.01,2013-04-19 10:34:00,
2013-04-19 06:39:00,53.5,52.7,29.99,SSE,161,1.0,5.0,97,0.00,,,0.00,VWS V14.01,2013-04-19 10:39:00,
2013-04-19 06:44:00,53.5,52.7,29.99,SSE,161,4.0,5.0,97,0.00,,,0.00,VWS V14.01,2013-04-19 10:44:00,
2013-04-19 06:49:00,53.5,52.7,29.99,SSE,161,2.0,5.0,97,0.00,,,0.00,VWS V14.01,2013-04-19 10:49:00,
2013-04-19 06:54:00,53.5,52.7,29.99,SSE,161,1.0,5.0,97,0.00,,,0.00,VWS V14.01,2013-04-19 10:54:00,
2013-04-19 06:59:00,53.4,52.6,29.99,SSE,161,2.0,5.0,97,0.00,,,0.00,VWS V14.01,2013-04-19 10:59:00,
2013-04-19 07:04:00,53.4,52.6,29.99,South,169,1.0,4.0,97,0.00,,,0.00,VWS V14.01,2013-04-19 11:04:00,
2013-04-19 07:09:00,53.5,52.7,29.98,SSE,165,1.0,4.0,97,0.00,,,0.00,VWS V14.01,2013-04-19 11:09:00,
2013-04-19 07:14:00,53.5,52.7,29.98,SSE,165,2.0,4.0,97,0.00,,,0.00,VWS V14.01,2013-04-19 11:14:00,
2013-04-19 07:19:00,53.6,52.8,29.99,SSE,165,0.0,4.0,97,0.00,,,0.00,VWS V14.01,2013-04-19 11:19:00,
2013-04-19 07:24:00,53.7,52.9,29.99,SSE,165,0.0,4.0,97,0.00,,,0.00,VWS V14.01,2013-04-19 11:24:00,
2013-04-19 07:29:00,53.8,53.0,29.98,SSE,165,0.0,4.0,97,0.00,,,0.00,VWS V14.01,2013-04-19 11:29:00,
2013-04-19 07:34:00,53.9,53.1,29.99,SSE,165,0.0,3.0,97,0.00,,,0.00,VWS V14.01,2013-04-19 11:34:00,
2013-04-19 07:39:00,53.9,53.1,29.98,SSE,165,0.0,3.0,97,0.00,,,0.00,VWS V14.01,2013-04-19 11:39:00,
2013-04-19 07:44:00,53.9,53.1,29.98,SSE,165,0.0,3.0,97,0.00,,,0.00,VWS V14.01,2013-04-19 11:44:00,
2013-04-19 07:49:00,53.9,53.1,29.98,SSE,165,0.0,3.0,97,0.00,,,0.00,VWS V14.01,2013-04-19 11:49:00,
2013-04-19 07:54:00,54.0,53.2,29.99,SSE,165,0.0,3.0,97,0.00,,,0.00,VWS V14.01,2013-04-19 11:54:00,
2013-04-19 07:59:00,54.0,53.2,29.98,SSE,165,0.0,3.0,97,0.00,,,0.00,VWS V14.01,2013-04-19 11:59:00,
2013-04-19 08:04:00,54.0,53.2,29.98,SSE,165,0.0,2.0,97,0.00,,,0.00,VWS V14.01,2013-04-19 12:04:00,
2013-04-19 08:09:00,54.1,53.3,29.98,SSE,165,0.0,2.0,97,0.00,,,0.00,VWS V14.01,2013-04-19 12:09:00,
2013-04-19 08:14:00,54.2,53.4,29.98,SSE,165,0.0,2.0,97,0.00,,,0.00,VWS V14.01,2013-04-19 12:14:00,
2013-04-19 08:19:00,54.2,53.4,29.98,SSE,165,0.0,2.0,97,0.00,,,0.00,VWS V14.01,2013-04-19 12:19:00,
2013-04-19 08:24:00,54.4,53.6,29.98,SSE,165,0.0,2.0,97,0.00,,,0.00,VWS V14.01,2013-04-19 12:24:00,
2013-04-19 08:29:00,54.5,53.7,29.98,SSE,165,0.0,2.0,97,0.00,,,0.00,VWS V14.01,2013-04-19 12:29:00,
2013-04-19 08:34:00,54.9,54.1,29.98,SSE,165,0.0,1.0,97,0.00,,,0.00,VWS V14.01,2013-04-19 12:34:00,
2013-04-19 08:39:00,55.2,54.4,29.98,SSE,165,2.0,3.0,97,0.00,,,0.00,VWS V14.01,2013-04-19 12:39:00,
2013-04-19 08:44:00,55.5,54.7,29.98,SSE,165,0.0,3.0,97,0.00,,,0.00,VWS V14.01,2013-04-19 12:44:00,
2013-04-19 08:49:00,55.8,55.0,29.97,SSE,165,2.0,4.0,97,0.00,,,0.00,VWS V14.01,2013-04-19 12:49:00,
2013-04-19 08:54:00,56.0,55.5,29.97,SSE,165,2.0,4.0,98,0.00,,,0.00,VWS V14.01,2013-04-19 12:54:00,
2013-04-19 08:59:00,56.1,55.3,29.97,SSE,165,2.0,4.0,97,0.00,,,0.00,VWS V14.01,2013-04-19 12:59:00,
2013-04-19 09:04:00,56.4,55.6,29.96,SSE,165,1.0,4.0,97,0.00,,,0.00,VWS V14.01,2013-04-19 13:04:00,
2013-04-19 09:09:00,56.7,55.9,29.96,SSE,165,1.0,4.0,97,0.00,,,0.00,VWS V14.01,2013-04-19 13:09:00,
2013-04-19 09:14:00,57.2,56.6,29.96,SSE,165,0.0,4.0,98,0.00,,,0.00,VWS V14.01,2013-04-19 13:14:00,
2013-04-19 09:19:00,57.6,57.0,29.95,SSE,165,1.0,4.0,98,0.00,,,0.00,VWS V14.01,2013-04-19 13:19:00,
2013-04-19 09:24:00,58.2,57.6,29.95,SSE,168,0.0,4.0,98,0.00,,,0.00,VWS V14.01,2013-04-19 13:24:00,
2013-04-19 09:29:00,58.7,58.1,29.96,WNW,300,1.0,4.0,98,0.00,,,0.00,VWS V14.01,2013-04-19 13:29:00,
2013-04-19 09:34:00,59.0,58.4,29.95,SSE,167,5.0,6.0,98,0.00,,,0.00,VWS V14.01,2013-04-19 13:34:00,
2013-04-19 09:39:00,59.2,58.3,29.95,South,174,1.0,6.0,97,0.00,,,0.00,VWS V14.01,2013-04-19 13:39:00,
2013-04-19 09:44:00,59.2,58.3,29.95,SSE,164,3.0,6.0,97,0.00,,,0.00,VWS V14.01,2013-04-19 13:44:00,
2013-04-19 09:49:00,59.0,58.2,29.95,SSW,211,3.0,6.0,97,0.00,,,0.00,VWS V14.01,2013-04-19 13:49:00,
2013-04-19 09:54:00,58.5,57.4,29.95,South,178,2.0,6.0,96,0.00,,,0.00,VWS V14.01,2013-04-19 13:54:00,
2013-04-19 09:59:00,58.3,57.2,29.95,South,178,3.0,6.0,96,0.00,,,0.00,VWS V14.01,2013-04-19 13:59:00,
2013-04-19 10:04:00,58.1,57.0,29.95,SW,228,2.0,7.0,96,0.00,,,0.00,VWS V14.01,2013-04-19 14:04:00,
2013-04-19 10:09:00,58.0,56.9,29.95,WSW,240,2.0,7.0,96,0.00,,,0.00,VWS V14.01,2013-04-19 14:09:00,
2013-04-19 10:14:00,58.1,57.0,29.95,West,263,1.0,9.0,96,0.00,,,0.00,VWS V14.01,2013-04-19 14:14:00,
2013-04-19 10:19:00,58.4,57.3,29.95,SSW,196,1.0,9.0,96,0.00,,,0.00,VWS V14.01,2013-04-19 14:19:00,
2013-04-19 10:24:00,58.9,57.8,29.95,South,179,4.0,9.0,96,0.00,,,0.00,VWS V14.01,2013-04-19 14:24:00,
2013-04-19 10:29:00,59.6,58.8,29.95,ESE,118,2.0,9.0,97,0.00,,,0.00,VWS V14.01,2013-04-19 14:29:00,
2013-04-19 10:34:00,60.5,59.4,29.95,SW,223,4.0,10.0,96,0.00,,,0.00,VWS V14.01,2013-04-19 14:34:00,
2013-04-19 10:39:00,61.1,59.7,29.94,South,183,2.0,11.0,95,0.00,,,0.00,VWS V14.01,2013-04-19 14:39:00,
2013-04-19 10:44:00,61.5,59.8,29.95,SE,140,4.0,11.0,94,0.00,,,0.00,VWS V14.01,2013-04-19 14:44:00,
2013-04-19 10:50:00,61.4,59.1,29.94,South,177,2.0,11.0,92,0.00,,,0.00,VWS V14.01,2013-04-19 14:50:00,
2013-04-19 10:55:00,61.3,58.7,29.94,SSE,165,3.0,11.0,91,0.00,,,0.00,VWS V14.01,2013-04-19 14:55:00,
2013-04-19 11:00:00,61.7,59.0,29.94,SSW,209,6.0,11.0,91,0.00,,,0.00,VWS V14.01,2013-04-19 15:00:00,
2013-04-19 11:05:00,61.9,58.9,29.94,SW,230,3.0,7.0,90,0.00,,BKN043,0.00,VWS V14.01,2013-04-19 15:05:00,
2013-04-19 11:10:00,61.8,58.8,29.94,South,173,5.0,9.0,90,0.00,,BKN043,0.00,VWS V14.01,2013-04-19 15:10:00,
2013-04-19 11:15:00,61.6,58.6,29.93,SW,221,5.0,9.0,90,0.00,,BKN043,0.00,VWS V14.01,2013-04-19 15:15:00,
2013-04-19 11:20:00,61.4,58.5,29.93,SW,232,3.0,10.0,90,0.00,,BKN043,0.00,VWS V14.01,2013-04-19 15:20:00,
2013-04-19 11:25:00,61.6,59.0,29.93,SW,215,7.0,10.0,91,0.00,,BKN043,0.00,VWS V14.01,2013-04-19 15:25:00,
2013-04-19 11:30:00,61.8,58.8,29.93,WSW,248,5.0,10.0,90,0.00,,BKN043,0.00,VWS V14.01,2013-04-19 15:30:00,
2013-04-19 11:35:00,61.8,58.8,29.92,SSE,159,6.0,11.0,90,0.00,,BKN043,0.00,VWS V14.01,2013-04-19 15:35:00,
2013-04-19 11:40:00,61.8,58.8,29.92,SSW,194,6.0,11.0,90,0.00,,BKN043,0.00,VWS V14.01,2013-04-19 15:40:00,
2013-04-19 11:45:00,62.2,59.5,29.92,South,178,3.0,11.0,91,0.00,,BKN043,0.00,VWS V14.01,2013-04-19 15:45:00,
2013-04-19 11:50:00,62.3,59.0,29.92,South,187,3.0,11.0,89,0.00,,BKN043,0.00,VWS V14.01,2013-04-19 15:50:00,
2013-04-19 11:55:00,62.0,58.7,29.91,SW,230,6.0,11.0,89,0.00,,BKN043,0.00,VWS V14.01,2013-04-19 15:55:00,
2013-04-19 12:00:00,62.2,59.2,29.91,SSE,154,8.0,11.0,90,0.00,,BKN043,0.00,VWS V14.01,2013-04-19 16:00:00,
2013-04-19 12:05:00,62.2,58.3,29.91,SSW,200,3.0,9.0,87,0.00,,OVC040,0.00,VWS V14.01,2013-04-19 16:05:00,
2013-04-19 12:10:00,62.3,58.4,29.91,SSE,160,4.0,9.0,87,0.00,,OVC040,0.00,VWS V14.01,2013-04-19 16:10:00,
2013-04-19 12:15:00,62.5,58.6,29.91,SSE,160,3.0,9.0,87,0.00,,OVC040,0.00,VWS V14.01,2013-04-19 16:15:00,
2013-04-19 12:20:00,62.5,58.6,29.90,SE,143,2.0,9.0,87,0.00,,SCT033,0.00,VWS V14.01,2013-04-19 16:20:00,
2013-04-19 12:25:00,62.8,59.2,29.90,SSE,153,6.0,9.0,88,0.00,,SCT033,0.00,VWS V14.01,2013-04-19 16:25:00,
2013-04-19 12:30:00,63.2,59.0,29.90,South,180,4.0,9.0,86,0.00,,SCT033,0.00,VWS V14.01,2013-04-19 16:30:00,
2013-04-19 12:35:00,63.2,59.0,29.90,SSE,166,3.0,4.0,86,0.00,,SCT033,0.00,VWS V14.01,2013-04-19 16:35:00,
2013-04-19 12:40:00,63.3,59.0,29.90,South,177,2.0,6.0,86,0.00,,SCT033,0.00,VWS V14.01,2013-04-19 16:40:00,
2013-04-19 12:45:00,63.6,59.0,29.89,SW,226,4.0,6.0,85,0.00,,SCT033,0.00,VWS V14.01,2013-04-19 16:45:00,
2013-04-19 12:50:00,64.3,59.7,29.89,SSE,161,5.0,7.0,85,0.00,,SCT033,0.00,VWS V14.01,2013-04-19 16:50:00,
2013-04-19 12:55:00,64.5,59.2,29.89,SSE,149,4.0,8.0,83,0.00,,SCT033,0.00,VWS V14.01,2013-04-19 16:55:00,
2013-04-19 13:00:00,64.1,58.8,29.88,South,175,3.0,8.0,83,0.00,,SCT033,0.00,VWS V14.01,2013-04-19 17:00:00,
2013-04-19 13:05:00,63.8,58.9,29.88,SSE,161,3.0,7.0,84,0.00,,OVC070,0.00,VWS V14.01,2013-04-19 17:05:00,
2013-04-19 13:10:00,63.3,58.1,29.88,SSE,161,5.0,10.0,83,0.00,,OVC070,0.00,VWS V14.01,2013-04-19 17:10:00,
2013-04-19 13:15:00,63.1,58.5,29.87,SSE,167,5.0,10.0,85,0.00,,OVC070,0.00,VWS V14.01,2013-04-19 17:15:00,
2013-04-19 13:20:00,63.0,58.8,29.88,SSW,194,3.0,10.0,86,0.00,,OVC070,0.00,VWS V14.01,2013-04-19 17:20:00,
2013-04-19 13:25:00,63.0,58.8,29.87,SSE,159,5.0,10.0,86,0.00,,OVC070,0.00,VWS V14.01,2013-04-19 17:25:00,
2013-04-19 13:30:00,63.3,59.4,29.87,SSE,165,2.0,10.0,87,0.00,,OVC070,0.00,VWS V14.01,2013-04-19 17:30:00,
2013-04-19 13:35:00,63.6,59.3,29.87,South,175,3.0,10.0,86,0.00,,OVC070,0.00,VWS V14.01,2013-04-19 17:35:00,
2013-04-19 13:40:00,63.5,58.9,29.87,SSW,206,1.0,10.0,85,0.00,,OVC070,0.00,VWS V14.01,2013-04-19 17:40:00,
2013-04-19 13:45:00,63.5,59.2,29.87,South,175,2.0,10.0,86,0.00,,OVC070,0.00,VWS V14.01,2013-04-19 17:45:00,
2013-04-19 13:50:00,63.3,58.7,29.87,SSE,159,2.0,10.0,85,0.00,,OVC070,0.00,VWS V14.01,2013-04-19 17:50:00,
2013-04-19 13:55:00,62.9,58.3,29.87,SSE,157,4.0,10.0,85,0.00,,OVC070,0.00,VWS V14.01,2013-04-19 17:55:00,
2013-04-19 14:00:00,62.7,58.5,29.87,South,191,2.0,10.0,86,0.00,,OVC070,0.00,VWS V14.01,2013-04-19 18:00:00,
2013-04-19 14:05:00,62.4,58.2,29.86,SSW,213,5.0,5.0,86,0.00,,OVC090,0.00,VWS V14.01,2013-04-19 18:05:00,
2013-04-19 14:10:00,62.1,58.5,29.86,South,188,2.0,10.0,88,0.00,,OVC090,0.00,VWS V14.01,2013-04-19 18:10:00,
2013-04-19 14:15:00,62.1,58.8,29.86,SSE,163,4.0,10.0,89,0.00,,OVC090,0.00,VWS V14.01,2013-04-19 18:15:00,
2013-04-19 14:20:00,61.9,58.9,29.86,SW,214,3.0,11.0,90,0.00,,OVC090,0.00,VWS V14.01,2013-04-19 18:20:00,
2013-04-19 14:25:00,61.7,58.7,29.86,SSW,197,2.0,11.0,90,0.00,,OVC090,0.00,VWS V14.01,2013-04-19 18:25:00,
2013-04-19 14:30:00,61.5,58.5,29.85,SSW,205,4.0,11.0,90,0.00,,OVC090,0.00,VWS V14.01,2013-04-19 18:30:00,
2013-04-19 14:35:00,61.2,58.2,29.85,South,178,3.0,6.0,90,0.00,,OVC090,0.00,VWS V14.01,2013-04-19 18:35:00,
2013-04-19 14:40:00,60.9,58.3,29.85,SSE,159,4.0,7.0,91,0.00,,OVC090,0.00,VWS V14.01,2013-04-19 18:40:00,
2013-04-19 14:45:00,60.7,58.1,29.84,SW,227,5.0,7.0,91,0.00,,OVC090,0.00,VWS V14.01,2013-04-19 18:45:00,
2013-04-19 14:50:00,60.5,58.2,29.84,SSE,158,2.0,7.0,92,0.00,,-RA,0.00,VWS V14.01,2013-04-19 18:50:00,
2013-04-19 14:55:00,60.3,58.0,29.83,WSW,240,1.0,7.0,92,0.00,,-RA,0.00,VWS V14.01,2013-04-19 18:55:00,
2013-04-19 15:00:00,60.0,57.7,29.84,SSE,167,1.0,7.0,92,0.00,,-RA,0.00,VWS V14.01,2013-04-19 19:00:00,
2013-04-19 15:05:00,59.7,57.4,29.83,SSE,163,2.0,6.0,92,0.00,,-RA,0.00,VWS V14.01,2013-04-19 19:05:00,
2013-04-19 15:10:00,59.4,57.1,29.83,SW,233,1.0,6.0,92,0.00,,-RA,0.00,VWS V14.01,2013-04-19 19:10:00,
2013-04-19 15:15:00,59.2,56.9,29.83,South,175,1.0,6.0,92,0.00,,-RA,0.00,VWS V14.01,2013-04-19 19:15:00,
2013-04-19 15:20:00,59.1,57.1,29.82,SSE,157,1.0,6.0,93,0.00,,,0.00,VWS V14.01,2013-04-19 19:20:00,
2013-04-19 15:25:00,59.5,57.8,29.81,SSE,161,3.0,6.0,94,0.00,,,0.00,VWS V14.01,2013-04-19 19:25:00,
2013-04-19 15:30:00,60.1,58.7,29.81,WSW,252,3.0,10.0,95,0.00,,,0.00,VWS V14.01,2013-04-19 19:30:00,
2013-04-19 15:35:00,60.3,58.9,29.81,SSE,167,5.0,5.0,95,0.00,,-RA,0.00,VWS V14.01,2013-04-19 19:35:00,
2013-04-19 15:40:00,60.0,58.3,29.81,South,180,1.0,5.0,94,0.00,,-RA,0.00,VWS V14.01,2013-04-19 19:40:00,
2013-04-19 15:45:00,59.8,58.1,29.80,WNW,285,0.0,5.0,94,0.00,,-RA,0.00,VWS V14.01,2013-04-19 19:45:00,
2013-04-19 15:50:00,59.6,57.9,29.80,SSW,213,8.0,9.0,94,0.00,,-RA,0.00,VWS V14.01,2013-04-19 19:50:00,
2013-04-19 15:55:00,59.4,57.7,29.79,South,185,3.0,9.0,94,0.00,,-RA,0.00,VWS V14.01,2013-04-19 19:55:00,
2013-04-19 16:00:00,59.2,57.5,29.79,South,174,2.0,9.0,94,0.00,,-RA,0.00,VWS V14.01,2013-04-19 20:00:00,
2013-04-19 16:05:00,59.1,57.4,29.79,SSE,165,3.0,4.0,94,0.00,,-RA,0.00,VWS V14.01,2013-04-19 20:05:00,
2013-04-19 16:10:00,59.1,57.7,29.79,SW,221,1.0,5.0,95,0.00,,-RA,0.00,VWS V14.01,2013-04-19 20:10:00,
2013-04-19 16:15:00,59.1,57.7,29.78,South,176,1.0,5.0,95,0.00,,,0.00,VWS V14.01,2013-04-19 20:15:00,
2013-04-19 16:20:00,58.9,57.5,29.78,SSW,200,1.0,5.0,95,0.00,,,0.00,VWS V14.01,2013-04-19 20:20:00,
2013-04-19 16:25:00,58.8,57.4,29.78,South,178,3.0,5.0,95,0.00,,,0.00,VWS V14.01,2013-04-19 20:25:00,
2013-04-19 16:30:00,58.7,57.3,29.78,SSE,157,2.0,5.0,95,0.00,,,0.00,VWS V14.01,2013-04-19 20:30:00,
2013-04-19 16:35:00,58.5,57.1,29.78,SSE,154,2.0,4.0,95,0.00,,,0.00,VWS V14.01,2013-04-19 20:35:00,
2013-04-19 16:40:00,58.4,57.0,29.77,SSE,147,3.0,6.0,95,0.00,,,0.00,VWS V14.01,2013-04-19 20:40:00,
2013-04-19 16:45:00,58.4,57.0,29.77,SSE,148,2.0,6.0,95,0.00,,,0.00,VWS V14.01,2013-04-19 20:45:00,
2013-04-19 16:50:00,58.5,57.1,29.77,SSE,150,3.0,6.0,95,0.00,,,0.00,VWS V14.01,2013-04-19 20:50:00,
2013-04-19 16:55:00,58.5,57.1,29.76,SSE,154,0.0,6.0,95,0.00,,,0.00,VWS V14.01,2013-04-19 20:55:00,
2013-04-19 17:00:00,58.5,57.1,29.77,SSW,213,5.0,6.0,95,0.00,,-RA,0.00,VWS V14.01,2013-04-19 21:00:00,
2013-04-19 17:05:00,58.4,57.0,29.76,SSE,167,2.0,5.0,95,0.00,,-RA,0.00,VWS V14.01,2013-04-19 21:05:00,
2013-04-19 17:10:00,58.4,57.0,29.76,SSE,163,4.0,5.0,95,0.00,,-RA,0.00,VWS V14.01,2013-04-19 21:10:00,
2013-04-19 17:15:00,58.3,56.9,29.76,SSE,168,0.0,5.0,95,0.00,,-RA,0.00,VWS V14.01,2013-04-19 21:15:00,
2013-04-19 17:20:00,58.3,57.2,29.75,SSE,163,2.0,5.0,96,0.00,,-RA,0.00,VWS V14.01,2013-04-19 21:20:00,
2013-04-19 17:25:00,58.4,57.3,29.75,SSE,163,0.0,5.0,96,0.00,,-RA,0.00,VWS V14.01,2013-04-19 21:25:00,
2013-04-19 17:30:00,58.3,57.2,29.75,SW,221,0.0,5.0,96,0.00,,,0.00,VWS V14.01,2013-04-19 21:30:00,
2013-04-19 17:35:00,58.2,57.1,29.75,SSE,167,0.0,4.0,96,0.00,,,0.00,VWS V14.01,2013-04-19 21:35:00,
2013-04-19 17:40:00,58.1,57.0,29.75,SW,217,2.0,6.0,96,0.00,,,0.00,VWS V14.01,2013-04-19 21:40:00,
2013-04-19 17:45:00,58.0,56.9,29.75,SW,217,0.0,6.0,96,0.00,,,0.00,VWS V14.01,2013-04-19 21:45:00,
2013-04-19 17:50:00,57.8,56.4,29.75,SW,219,0.0,6.0,95,0.00,,,0.00,VWS V14.01,2013-04-19 21:50:00,
2013-04-19 17:55:00,57.7,56.3,29.75,WNW,292,0.0,6.0,95,0.00,,,0.00,VWS V14.01,2013-04-19 21:55:00,
2013-04-19 18:00:00,57.7,56.3,29.74,SW,221,3.0,6.0,95,0.00,,,0.00,VWS V14.01,2013-04-19 22:00:00,
2013-04-19 18:05:00,57.9,56.8,29.74,SSE,150,5.0,8.0,96,0.00,,,0.00,VWS V14.01,2013-04-19 22:05:00,
2013-04-19 18:10:00,58.2,57.1,29.75,SW,226,6.0,8.0,96,0.00,,,0.00,VWS V14.01,2013-04-19 22:10:00,
2013-04-19 18:15:00,58.3,57.2,29.74,SSW,205,9.0,9.0,96,0.00,,,0.00,VWS V14.01,2013-04-19 22:15:00,
2013-04-19 18:20:00,58.3,57.2,29.74,SSE,163,5.0,12.0,96,0.00,,,0.00,VWS V14.01,2013-04-19 22:20:00,
2013-04-19 18:25:00,58.4,57.3,29.74,SW,224,3.0,12.0,96,0.00,,,0.00,VWS V14.01,2013-04-19 22:25:00,
2013-04-19 18:31:00,58.2,57.1,29.73,South,183,4.0,12.0,96,0.00,,,0.00,VWS V14.01,2013-04-19 22:31:00,
2013-04-19 18:36:00,58.1,57.0,29.73,South,173,3.0,7.0,96,0.00,,,0.00,VWS V14.01,2013-04-19 22:36:00,
2013-04-19 18:41:00,58.1,57.0,29.73,South,186,6.0,8.0,96,0.00,,,0.00,VWS V14.01,2013-04-19 22:41:00,
2013-04-19 18:46:00,58.1,57.0,29.74,WSW,248,8.0,10.0,96,0.00,,,0.00,VWS V14.01,2013-04-19 22:46:00,
2013-04-19 18:51:00,58.2,57.1,29.73,South,174,2.0,10.0,96,0.00,,,0.00,VWS V14.01,2013-04-19 22:51:00,
2013-04-19 18:56:00,58.2,57.1,29.73,SSE,168,2.0,10.0,96,0.00,,,0.00,VWS V14.01,2013-04-19 22:56:00,
2013-04-19 19:01:00,58.3,57.5,29.73,South,184,6.0,10.0,97,0.00,,,0.00,VWS V14.01,2013-04-19 23:01:00,
2013-04-19 19:06:00,58.6,57.8,29.73,SSW,193,4.0,6.0,97,0.00,,,0.00,VWS V14.01,2013-04-19 23:06:00,
2013-04-19 19:11:00,58.7,57.8,29.74,SW,236,5.0,14.0,97,0.00,,,0.00,VWS V14.01,2013-04-19 23:11:00,
2013-04-19 19:16:00,58.9,58.0,29.73,SSW,213,6.0,14.0,97,0.00,,,0.00,VWS V14.01,2013-04-19 23:16:00,
2013-04-19 19:21:00,58.8,58.0,29.74,South,189,1.0,14.0,97,0.00,,,0.00,VWS V14.01,2013-04-19 23:21:00,
2013-04-19 19:26:00,58.7,57.8,29.73,SSE,155,2.0,14.0,97,0.00,,,0.00,VWS V14.01,2013-04-19 23:26:00,
2013-04-19 19:31:00,58.7,57.8,29.73,SSW,207,3.0,14.0,97,0.00,,,0.00,VWS V14.01,2013-04-19 23:31:00,
2013-04-19 19:36:00,58.7,57.8,29.73,SW,229,10.0,12.0,97,0.00,,,0.00,VWS V14.01,2013-04-19 23:36:00,
2013-04-19 19:41:00,58.9,58.0,29.73,South,178,3.0,12.0,97,0.00,,,0.00,VWS V14.01,2013-04-19 23:41:00,
2013-04-19 19:46:00,58.9,58.0,29.73,West,263,4.0,12.0,97,0.00,,,0.00,VWS V14.01,2013-04-19 23:46:00,
2013-04-19 19:51:00,58.9,58.0,29.73,SSW,192,4.0,12.0,97,0.00,,,0.00,VWS V14.01,2013-04-19 23:51:00,
2013-04-19 20:01:00,59.0,58.2,29.73,SSW,198,6.0,15.0,97,0.00,,,0.00,VWS V14.01,2013-04-20 00:01:00,
2013-04-19 20:07:00,59.0,58.2,29.73,SSW,213,4.0,10.0,97,0.00,,,0.00,VWS V14.01,2013-04-20 00:07:00,
2013-04-19 20:12:00,59.0,58.2,29.72,South,177,3.0,13.0,97,0.00,,,0.00,VWS V14.01,2013-04-20 00:12:00,
2013-04-19 20:17:00,58.9,58.0,29.73,SSW,194,2.0,13.0,97,0.00,,,0.00,VWS V14.01,2013-04-20 00:17:00,
2013-04-19 20:22:00,59.0,58.2,29.73,WSW,238,9.0,17.0,97,0.00,,,0.00,VWS V14.01,2013-04-20 00:22:00,
2013-04-19 20:27:00,59.1,58.2,29.73,WSW,244,7.0,17.0,97,0.00,,,0.00,VWS V14.01,2013-04-20 00:27:00,
2013-04-19 20:32:00,59.1,58.2,29.72,SW,222,3.0,10.0,97,0.00,,,0.00,VWS V14.01,2013-04-20 00:32:00,
2013-04-19 20:37:00,59.0,58.2,29.72,SSW,196,7.0,10.0,97,0.00,,,0.00,VWS V14.01,2013-04-20 00:37:00,
2013-04-19 20:42:00,58.9,58.0,29.72,South,182,1.0,12.0,97,0.00,,,0.00,VWS V14.01,2013-04-20 00:42:00,
2013-04-19 20:47:00,59.1,58.2,29.71,WSW,247,3.0,12.0,97,0.00,,,0.00,VWS V14.01,2013-04-20 00:47:00,
2013-04-19 20:52:00,59.3,58.5,29.71,SE,134,3.0,12.0,97,0.00,,,0.00,VWS V14.01,2013-04-20 00:52:00,
2013-04-19 20:57:00,59.5,58.7,29.71,SSE,157,5.0,12.0,97,0.00,,,0.00,VWS V14.01,2013-04-20 00:57:00,
2013-04-19 21:02:00,59.5,58.9,29.71,SSW,203,5.0,11.0,98,0.00,,,0.00,VWS V14.01,2013-04-20 01:02:00,
2013-04-19 21:07:00,59.4,58.5,29.71,SSE,159,6.0,11.0,97,0.00,,,0.00,VWS V14.01,2013-04-20 01:07:00,
2013-04-19 21:12:00,59.4,58.5,29.71,SSE,147,6.0,11.0,97,0.00,,,0.00,VWS V14.01,2013-04-20 01:12:00,
2013-04-19 21:17:00,59.5,58.7,29.71,South,190,3.0,12.0,97,0.00,,,0.00,VWS V14.01,2013-04-20 01:17:00,
2013-04-19 21:22:00,59.4,58.5,29.70,South,181,3.0,12.0,97,0.00,,,0.00,VWS V14.01,2013-04-20 01:22:00,
2013-04-19 21:27:00,59.2,58.3,29.71,South,179,4.0,12.0,97,0.00,,,0.00,VWS V14.01,2013-04-20 01:27:00,
2013-04-19 21:32:00,58.9,58.0,29.71,SSE,164,4.0,7.0,97,0.00,,,0.00,VWS V14.01,2013-04-20 01:32:00,
2013-04-19 21:37:00,58.8,58.0,29.71,SSW,192,4.0,10.0,97,0.00,,,0.00,VWS V14.01,2013-04-20 01:37:00,
2013-04-19 21:42:00,58.9,58.3,29.70,SE,142,4.0,15.0,98,0.00,,,0.00,VWS V14.01,2013-04-20 01:42:00,
2013-04-19 21:47:00,58.8,58.0,29.70,SSE,161,2.0,15.0,97,0.00,,,0.00,VWS V14.01,2013-04-20 01:47:00,
2013-04-19 21:52:00,58.8,58.0,29.71,South,185,2.0,15.0,97,0.00,,,0.00,VWS V14.01,2013-04-20 01:52:00,
2013-04-19 21:57:00,58.7,57.8,29.70,SE,146,4.0,15.0,97,0.00,,,0.00,VWS V14.01,2013-04-20 01:57:00,
2013-04-19 22:02:00,58.7,57.8,29.70,SE,141,6.0,6.0,97,0.00,,,0.00,VWS V14.01,2013-04-20 02:02:00,
2013-04-19 22:07:00,58.9,58.0,29.70,SSW,198,3.0,10.0,97,0.00,,,0.00,VWS V14.01,2013-04-20 02:07:00,
2013-04-19 22:12:00,59.0,58.4,29.70,SSW,194,4.0,10.0,98,0.00,,,0.00,VWS V14.01,2013-04-20 02:12:00,
2013-04-19 22:17:00,59.1,58.5,29.70,SSE,160,4.0,11.0,98,0.00,,,0.00,VWS V14.01,2013-04-20 02:17:00,
2013-04-19 22:22:00,59.0,58.4,29.70,SSW,192,6.0,13.0,98,0.00,,,0.00,VWS V14.01,2013-04-20 02:22:00,
2013-04-19 22:27:00,58.9,58.3,29.69,SSW,195,2.0,13.0,98,0.00,,,0.00,VWS V14.01,2013-04-20 02:27:00,
2013-04-19 22:32:00,58.8,58.2,29.69,South,180,5.0,6.0,98,0.00,,,0.00,VWS V14.01,2013-04-20 02:32:00,
2013-04-19 22:37:00,58.8,58.2,29.68,South,180,6.0,13.0,98,0.00,,,0.00,VWS V14.01,2013-04-20 02:37:00,
2013-04-19 22:42:00,58.7,58.1,29.68,SSE,155,7.0,13.0,98,0.00,,,0.00,VWS V14.01,2013-04-20 02:42:00,
2013-04-19 22:47:00,58.7,58.1,29.68,SSE,163,7.0,15.0,98,0.00,,,0.00,VWS V14.01,2013-04-20 02:47:00,
2013-04-19 22:52:00,58.8,58.2,29.68,SSE,159,6.0,15.0,98,0.00,,,0.00,VWS V14.01,2013-04-20 02:52:00,
2013-04-19 22:57:00,58.8,58.2,29.68,South,188,4.0,15.0,98,0.00,,,0.00,VWS V14.01,2013-04-20 02:57:00,
2013-04-19 23:02:00,58.8,58.2,29.68,SE,142,5.0,7.0,98,0.00,,,0.00,VWS V14.01,2013-04-20 03:02:00,
2013-04-19 23:07:00,58.7,58.1,29.68,South,172,3.0,13.0,98,0.00,,,0.00,VWS V14.01,2013-04-20 03:07:00,
2013-04-19 23:12:00,58.8,58.2,29.68,SSE,162,8.0,20.0,98,0.00,,,0.00,VWS V14.01,2013-04-20 03:12:00,
2013-04-19 23:17:00,59.0,58.4,29.67,SE,145,4.0,20.0,98,0.00,,,0.00,VWS V14.01,2013-04-20 03:17:00,
2013-04-19 23:22:00,59.2,58.6,29.67,SW,215,5.0,20.0,98,0.00,,,0.00,VWS V14.01,2013-04-20 03:22:00,
2013-04-19 23:27:00,59.3,58.7,29.67,SW,221,6.0,20.0,98,0.00,,,0.00,VWS V14.01,2013-04-20 03:27:00,
2013-04-19 23:32:00,59.1,58.5,29.67,South,189,7.0,11.0,98,0.00,,,0.00,VWS V14.01,2013-04-20 03:32:00,
2013-04-19 23:37:00,59.0,58.4,29.67,SW,223,11.0,14.0,98,0.00,,,0.00,VWS V14.01,2013-04-20 03:37:00,
2013-04-19 23:42:00,58.9,58.3,29.67,South,182,5.0,14.0,98,0.00,,,0.00,VWS V14.01,2013-04-20 03:42:00,
2013-04-19 23:47:00,58.8,58.2,29.67,SSW,194,6.0,14.0,98,0.01,,-RA,0.01,VWS V14.01,2013-04-20 03:47:00,
2013-04-19 23:52:00,58.8,58.2,29.67,SSE,167,4.0,17.0,98,0.02,,-RA,0.02,VWS V14.01,2013-04-20 03:52:00,
2013-04-19 23:57:00,58.7,58.1,29.67,East,81,3.0,17.0,98,0.02,,-RA,0.02,VWS V14.01,2013-04-20 03:57:00,